sat.trackr.live / text

‹ back to catalog

STARLINK-31365

NORAD 58973 · 2024-031J

PAYLOAD ACTIVE UNKNOWN

§ Identity

Operator
Country
US
Launch date
2024-02-15
Launch site
AFWTR
Launch vehicle
Mass (kg)
RCS (m²)

Purposes: comms

External: N2YO · Heavens-Above · Gunter

§ Orbital elements

Epoch: 2026-05-24T15:41:08.035008Z

Period
94.11 min
Inclination
53.1611°
Eccentricity
0.0001154
Mean motion
15.30179980 rev/d
Perigee alt
474.5 km
Apogee alt
476.1 km
Semi-major
6,853.4 km
B*
-4.4437e-5
RAAN
303.8445°
Arg perigee
73.2906°
Mean anomaly
286.8222°
Rev number
12,816

§ Raw data

STARLINK-313651 58973U 24031J   26144.65356522 -.00001674  00000+0 -44437-4 0  99982 58973  53.1611 303.8445 0001154  73.2906 286.8222 15.30179980128167

JSON: /api/v1/satellites/58973 · /tle

For live sub-satellite position, see the globe view (requires WebGL).

§ Visibility from observer

Set your observer location to see the next 7 days of passes ≥ 10°. The values pass through the URL so the page stays shareable.

No JS? Fill the form by hand. The geolocation button needs JavaScript.